Content
SEND FEEDBACK

Daily
Averages
Monthly
Summary
Togo

KETEDJA, TOGO


Home > Africa > Togo
Elevation: 82 feet     Latitude: 06 10N     Longitude: 001 15E

WEATHER
 
SELECT A DAY
Number of Records: 193,148;   Date Range: 9/29/98 - 11/24/14
 
SHARE

PRINT THIS DATA

[ ← Previous Day ]
WEATHER ALMANAC - JANUARY 31, 2013
[ Next Day → ]
[ °C ]   °F
Weather ElementAverageHighLow
Temperature81.9 °F91.4 °F (11:30 am)75.2 °F (4:30 am)
Dewpoint75.6 °F79 °F (6:00 pm)69.8 °F (11:30 am)
Humidity82.5 %100 % (4:30 am)46 % (12:00 pm)
Barometer29.87 in29.92 in (7:26 am)29.79 in (6:00 pm)
Wind Speed3.9 mph10.4 mph (2:00 pm)
Weather ElementAverage
Visibility4.7 mi
Wind DirectionS (175.1 °)

Weather ElementTotal
Precipitation---
Cooling Degree Days18.3 (Base 65)
Growing Degree Days33.3 (Base 50)
Averaged from 61 records on January 31, 2013
WEATHER CONDITIONS BREAKOUT
WIND DIRECTION BREAKOUT
WEATHER BY HOUR - JANUARY 31, 2013
[ °C ]   °F
Local TimeTemperatureDewpointHumidityBarometerVisibilityWind DirectionWind SpeedGust SpeedPrecipitationEventsConditions
12:00 AM80.6 °F77.0 °F89 %29.89 in6.2 miSW (230°)3.5 mphPartly Cloudy
12:30 AM80.6 °F77.0 °F89 %29.89 in6.2 miVariable2.3 mphPartly Cloudy
1:00 AM80.6 °F75.2 °F84 %29.86 in6.2 miVariable1.2 mphPartly Cloudy
1:30 AM78.8 °F75.2 °F89 %29.86 in6.2 miWest (270°)1.2 mphPartly Cloudy
2:00 AM78.8 °F75.2 °F89 %29.86 in6.2 miNNW (340°)1.2 mphPartly Cloudy
2:30 AM78.8 °F75.2 °F89 %29.86 in6.2 miNorth (10°)1.2 mphPartly Cloudy
3:00 AM77.0 °F75.2 °F94 %29.86 in6.2 miNorth (360°)1.2 mphPartly Cloudy
3:30 AM77.0 °F75.2 °F94 %29.83 in5.0 miNorth (350°)1.2 mphPartly Cloudy
4:00 AM77.0 °F75.2 °F94 %29.83 in5.0 miNNW (330°)1.2 mphPartly Cloudy
4:30 AM75.2 °F75.2 °F100 %29.86 in5.0 miNNW (340°)1.2 mphPartly Cloudy
5:00 AM75.2 °F75.2 °F100 %29.86 in5.0 miCalmPartly Cloudy
5:30 AM77.0 °F75.2 °F94 %29.86 in4.3 miNNW (340°)3.5 mphPartly Cloudy
5:49 AM77.0 °F75.2 °F94 %29.86 in2.8 miVariable3.5 mphPartly Cloudy
6:00 AM77.0 °F76.0 °F98 %29.83 in3.0 miNorth2.3 mphMist
6:00 AM77.0 °F75.2 °F94 %29.86 in1.6 miNorth (350°)2.3 mphScattered Clouds
6:02 AM77.0 °F75.2 °F94 %29.86 in1.6 miNorth (350°)2.3 mphScattered Clouds
6:07 AM77.0 °F75.2 °F94 %29.86 in0.9 miVariable2.3 mphMostly Cloudy
6:18 AM77.0 °F75.2 °F94 %29.86 in0.5 miVariable2.3 mphFogFog
6:30 AM77.0 °F75.2 °F94 %29.89 in0.5 miVariable2.3 mphFogFog
6:52 AM77.0 °F75.2 °F94 %29.89 in0.1 miNorth (350°)3.5 mphFogFog
6:59 AM77.0 °F75.2 °F94 %29.89 in0.4 miNorth (350°)4.6 mphFogFog
7:00 AM77.0 °F75.2 °F94 %29.89 in0.4 miNorth (350°)4.6 mphFogFog
7:26 AM77.0 °F77.0 °F100 %29.92 in0.5 miVariable2.3 mphFogFog
7:30 AM77.0 °F77.0 °F100 %29.92 in0.5 miVariable2.3 mphFogFog
7:52 AM77.0 °F77.0 °F100 %29.92 in1.4 miVariable3.5 mphMostly Cloudy
8:00 AM77.0 °F77.0 °F100 %29.92 in1.4 miNorth (350°)4.6 mphMostly Cloudy
8:26 AM78.8 °F77.0 °F94 %29.92 in2.2 miNNW (330°)4.6 mphScattered Clouds
8:30 AM78.8 °F77.0 °F94 %29.92 in2.2 miNNW (330°)4.6 mphScattered Clouds
8:44 AM80.6 °F77.0 °F89 %29.92 in3.7 miNNW (340°)4.6 mphPartly Cloudy
9:00 AM80.6 °F77.0 °F89 %29.92 in4.3 miNNW (340°)4.6 mphPartly Cloudy
9:30 AM82.4 °F77.0 °F84 %29.92 in6.2 miNNW (340°)4.6 mphPartly Cloudy
10:00 AM84.2 °F75.2 °F74 %29.92 in6.2 miVariable3.5 mphPartly Cloudy
10:30 AM87.8 °F71.6 °F58 %29.92 in6.2 miVariable4.6 mphPartly Cloudy
11:00 AM87.8 °F73.4 °F62 %29.89 in6.2 miNNW (330°)4.6 mphScattered Clouds
11:30 AM91.4 °F69.8 °F49 %29.89 in6.2 miVariable3.5 mphScattered Clouds
12:00 PM91.0 °F73.0 °F46 %29.86 in5.0 miNE (40°)4.6 mphPartly Cloudy
12:00 PM91.4 °F69.8 °F49 %29.86 in6.2 miVariable2.3 mphMostly Cloudy
12:30 PM89.6 °F73.4 °F59 %29.86 in6.2 miSouth (170°)5.8 mphMostly Cloudy
1:00 PM91.4 °F73.4 °F55 %29.83 in6.2 miSouth (180°)8.1 mphScattered Clouds
1:30 PM91.4 °F73.4 °F55 %29.83 in6.2 miSouth (170°)8.1 mphScattered Clouds
2:00 PM89.6 °F73.4 °F59 %29.83 in6.2 miSouth (170°)10.4 mphScattered Clouds
2:30 PM89.6 °F73.4 °F59 %29.80 in6.2 miSouth (170°)9.2 mphScattered Clouds
3:00 PM87.8 °F73.4 °F62 %29.80 in6.2 miSouth (180°)9.2 mphScattered Clouds
3:30 PM87.8 °F75.2 °F66 %29.80 in6.2 miSouth (180°)9.2 mphScattered Clouds
4:00 PM87.8 °F75.2 °F66 %29.80 in6.2 miSouth (170°)8.1 mphMostly Cloudy
4:30 PM87.8 °F75.2 °F66 %29.80 in6.2 miSouth (180°)6.9 mphMostly Cloudy
5:00 PM87.8 °F75.2 °F66 %29.83 in6.2 miSouth (170°)5.8 mphMostly Cloudy
5:30 PM86.0 °F77.0 °F74 %29.83 in6.2 miSSE (160°)6.9 mphMostly Cloudy
6:00 PM85.0 °F79.0 °F78 %29.79 in6.0 miSouth (180°)4.6 mphScattered Clouds
6:00 PM84.2 °F77.0 °F79 %29.83 in6.2 miSouth (170°)5.8 mphScattered Clouds
6:30 PM84.2 °F77.0 °F79 %29.86 in6.2 miSouth (170°)5.8 mphScattered Clouds
7:00 PM84.2 °F77.0 °F79 %29.86 in6.2 miSouth (180°)4.6 mphScattered Clouds
7:30 PM82.4 °F77.0 °F84 %29.89 in6.2 miSouth (170°)4.6 mphScattered Clouds
8:00 PM82.4 °F77.0 °F84 %29.89 in6.2 miSSW (200°)2.3 mphScattered Clouds
8:30 PM82.4 °F77.0 °F84 %29.89 in6.2 miSSW (200°)3.5 mphPartly Cloudy
9:00 PM80.6 °F77.0 °F89 %29.89 in6.2 miSW (220°)3.5 mphPartly Cloudy
9:30 PM80.6 °F77.0 °F89 %29.89 in6.2 miSSW (210°)3.5 mphPartly Cloudy
10:00 PM80.6 °F77.0 °F89 %29.92 in6.2 miSouth (190°)2.3 mphPartly Cloudy
10:30 PM82.4 °F78.8 °F89 %29.89 in6.2 miSouth (170°)3.5 mphPartly Cloudy
11:00 PM80.6 °F78.8 °F94 %29.92 in6.2 miCalmScattered Clouds
11:30 PM80.6 °F78.8 °F94 %29.89 in6.2 miCalmScattered Clouds
Hourly data recorded from DXXX, located miles away from Ketedja, Togo







STORIES FROM OUR PARTNERS